User: anonymous   Login
Location: Berlin
(38.3226°N, 75.2177°W)
Time: 12:36:30
(UTC+00:00)
Language:

YAOGAN 1 - Orbit

View from above orbital plane
View from above orbital plane
View from above satellite
View from above satellite

Ground track
Ground track

The orbit data is extracted from the following two-line orbital elements,

1 29092U 06015A   21016.78511783  .00000070  00000-0  15064-4 0  9991
2 29092  97.9235  45.5677 0001370  92.3906 267.7464 14.83121770796353
Epoch (UTC): 16 January 2021 18:50:34
Eccentricity: 0.0001370
inclination: 97.9235°
perigee height: 618 km
apogee height: 620 km
right ascension of ascending node: 45.5677°
argument of perigee: 92.3906°
revolutions per day: 14.83121770
mean anomaly at epoch: 267.7464°
orbit number at epoch: 79635

The dashed part of the orbit path shows where the satellite is in the earth's shadow,  

DLR